When you browse on this site, cookies collect data to enhance your experience and personalize the content and advertising you see.
Visit our Privacy Policy to learn more. By continuing to use the site, you agree to this use of cookies and data.
  • In Portugal
  • List of Countries
  • For 7 days
  • Water Temperature
  • Satellite Maps
  • Weather Map
  • Weather Widgets
  • user-avatar
    Login

    Hourly Weather Snizhne

    Today, 23 May, Thursday

    Time Temperature Precipitation Wind Pressure Humidity
    00:00 +12°C° 0 mm 3 mps 733 mmHg 96%
    01:00 +12°C° 0 mm 3 mps 733 mmHg 96%
    02:00 +13°C° 0 mm 2 mps 732 mmHg 96%
    03:00 +13°C° 0 mm 2 mps 732 mmHg 96%
    04:00 +13°C° 0.1 mm 2 mps 732 mmHg 94%
    05:00 +13°C° 0.1 mm 2 mps 732 mmHg 93%
    06:00 +13°C° 0.1 mm 2 mps 732 mmHg 91%
    07:00 +14°C° 0.1 mm 3 mps 732 mmHg 83%
    08:00 +17°C° 0.1 mm 4 mps 732 mmHg 75%
    09:00 +19°C° 0.1 mm 4 mps 732 mmHg 68%
    10:00 +20°C° 0.4 mm 5 mps 732 mmHg 64%
    11:00 +20°C° 0.4 mm 5 mps 732 mmHg 61%
    12:00 +21°C° 0.4 mm 5 mps 732 mmHg 57%
    13:00 +21°C° 0.5 mm 5 mps 732 mmHg 57%
    14:00 +22°C° 0.5 mm 6 mps 732 mmHg 57%
    15:00 +22°C° 0.5 mm 6 mps 731 mmHg 57%
    16:00 +21°C° 0.3 mm 5 mps 731 mmHg 61%
    17:00 +21°C° 0.3 mm 5 mps 731 mmHg 65%
    18:00 +20°C° 0.3 mm 4 mps 731 mmHg 69%
    19:00 +19°C° 0.2 mm 4 mps 731 mmHg 75%
    20:00 +17°C° 0.2 mm 3 mps 731 mmHg 80%
    21:00 +16°C° 0.2 mm 3 mps 731 mmHg 85%
    22:00 +14°C° 0 mm 3 mps 731 mmHg 87%
    23:00 +15°C° 0 mm 2 mps 731 mmHg 88%

    Tomorrow, 24 May, Friday

    Time Temperature Precipitation Wind Pressure Humidity
    00:00 +15°C° 0 mm 2 mps 731 mmHg 89%
    01:00 +14°C° 0 mm 2 mps 731 mmHg 90%
    02:00 +14°C° 0 mm 2 mps 731 mmHg 90%
    03:00 +14°C° 0 mm 2 mps 731 mmHg 91%
    04:00 +14°C° 0 mm 2 mps 732 mmHg 90%
    05:00 +15°C° 0 mm 1 mps 732 mmHg 89%
    06:00 +15°C° 0 mm 1 mps 732 mmHg 88%
    07:00 +18°C° 0 mm 1 mps 732 mmHg 81%
    08:00 +19°C° 0 mm 2 mps 733 mmHg 74%
    09:00 +21°C° 0 mm 2 mps 733 mmHg 67%
    10:00 +23°C° 0 mm 2 mps 733 mmHg 61%
    11:00 +24°C° 0 mm 2 mps 733 mmHg 56%
    12:00 +25°C° 0 mm 2 mps 733 mmHg 51%
    13:00 +25°C° 0 mm 2 mps 733 mmHg 51%
    14:00 +26°C° 0 mm 3 mps 733 mmHg 50%
    15:00 +26°C° 0 mm 3 mps 733 mmHg 50%
    16:00 +25°C° 0.5 mm 3 mps 733 mmHg 55%
    17:00 +24°C° 0.5 mm 3 mps 732 mmHg 61%
    18:00 +22°C° 0.5 mm 3 mps 732 mmHg 66%
    19:00 +21°C° 0.5 mm 2 mps 732 mmHg 70%
    20:00 +19°C° 0.5 mm 2 mps 732 mmHg 75%
    21:00 +17°C° 0.5 mm 2 mps 732 mmHg 80%
    22:00 +18°C° 0 mm 1 mps 732 mmHg 79%
    23:00 +18°C° 0 mm 1 mps 732 mmHg 79%

    Day after tomorrow, 25 May, Saturday

    Time Temperature Precipitation Wind Pressure Humidity
    00:00 +16°C° 0 mm 1 mps 732 mmHg 78%
    01:00 +16°C° 0 mm 1 mps 732 mmHg 78%
    02:00 +15°C° 0 mm 1 mps 732 mmHg 77%
    03:00 +15°C° 0 mm 1 mps 732 mmHg 76%
    04:00 +15°C° 0 mm 1 mps 732 mmHg 75%
    05:00 +16°C° 0 mm 1 mps 732 mmHg 73%
    06:00 +16°C° 0 mm 1 mps 732 mmHg 71%
    07:00 +19°C° 0.1 mm 1 mps 732 mmHg 68%
    08:00 +20°C° 0.1 mm 2 mps 732 mmHg 65%
    09:00 +23°C° 0.1 mm 2 mps 733 mmHg 62%
    10:00 +24°C° 0.7 mm 3 mps 732 mmHg 58%
    11:00 +25°C° 0.7 mm 3 mps 732 mmHg 54%
    12:00 +26°C° 0.7 mm 3 mps 732 mmHg 50%
    13:00 +25°C° 0.4 mm 2 mps 732 mmHg 51%
    14:00 +25°C° 0.4 mm 2 mps 731 mmHg 52%
    15:00 +25°C° 0.4 mm 2 mps 731 mmHg 53%
    16:00 +23°C° 3.4 mm 2 mps 731 mmHg 64%
    17:00 +20°C° 3.4 mm 3 mps 730 mmHg 76%
    18:00 +18°C° 3.4 mm 4 mps 730 mmHg 87%
    19:00 +18°C° 2.5 mm 3 mps 730 mmHg 88%
    20:00 +18°C° 2.5 mm 2 mps 730 mmHg 89%
    21:00 +18°C° 2.5 mm 1 mps 730 mmHg 90%
    22:00 +17°C° 2.3 mm 2 mps 730 mmHg 91%
    23:00 +17°C° 2.3 mm 3 mps 730 mmHg 91%

    26 May, Sunday

    Time Temperature Precipitation Wind Pressure Humidity
    00:00 +15°C° 2.3 mm 4 mps 730 mmHg 92%
    01:00 +15°C° 6.2 mm 4 mps 730 mmHg 91%
    02:00 +15°C° 6.2 mm 5 mps 730 mmHg 91%
    03:00 +15°C° 6.2 mm 6 mps 730 mmHg 90%
    04:00 +15°C° 3.8 mm 5 mps 730 mmHg 91%
    05:00 +15°C° 3.8 mm 4 mps 730 mmHg 91%
    06:00 +15°C° 3.8 mm 4 mps 730 mmHg 92%
    07:00 +15°C° 1.2 mm 4 mps 730 mmHg 91%
    08:00 +15°C° 1.2 mm 4 mps 731 mmHg 91%
    09:00 +17°C° 1.2 mm 4 mps 731 mmHg 90%
    10:00 +17°C° 0.5 mm 5 mps 731 mmHg 85%
    11:00 +19°C° 0.5 mm 5 mps 731 mmHg 79%
    12:00 +20°C° 0.5 mm 5 mps 732 mmHg 74%
    13:00 +21°C° 0.4 mm 6 mps 732 mmHg 72%
    14:00 +22°C° 0.4 mm 6 mps 732 mmHg 70%
    15:00 +22°C° 0.4 mm 6 mps 732 mmHg 69%
    16:00 +22°C° 0.3 mm 6 mps 732 mmHg 71%
    17:00 +22°C° 0.3 mm 6 mps 732 mmHg 73%
    18:00 +21°C° 0.3 mm 5 mps 732 mmHg 75%
    19:00 +20°C° 0 mm 5 mps 732 mmHg 79%
    20:00 +19°C° 0 mm 4 mps 732 mmHg 83%
    21:00 +18°C° 0 mm 4 mps 732 mmHg 88%
    22:00 +17°C° 0.1 mm 3 mps 733 mmHg 89%
    23:00 +17°C° 0.1 mm 3 mps 733 mmHg 90%

    27 May, Monday

    Time Temperature Precipitation Wind Pressure Humidity
    00:00 +16°C° 0.1 mm 3 mps 733 mmHg 91%
    01:00 +16°C° 0 mm 2 mps 734 mmHg 91%
    02:00 +16°C° 0 mm 2 mps 734 mmHg 91%
    03:00 +15°C° 0 mm 2 mps 734 mmHg 92%
    04:00 +16°C° 0 mm 2 mps 735 mmHg 91%
    05:00 +16°C° 0 mm 2 mps 735 mmHg 91%
    06:00 +16°C° 0 mm 2 mps 735 mmHg 90%
    07:00 +18°C° 0 mm 3 mps 736 mmHg 83%
    08:00 +20°C° 0 mm 3 mps 737 mmHg 76%
    09:00 +21°C° 0 mm 4 mps 737 mmHg 68%
    10:00 +22°C° 0 mm 4 mps 737 mmHg 64%
    11:00 +23°C° 0 mm 4 mps 738 mmHg 60%
    12:00 +25°C° 0 mm 4 mps 738 mmHg 56%
    13:00 +26°C° 0 mm 4 mps 738 mmHg 54%
    14:00 +26°C° 0 mm 4 mps 738 mmHg 52%
    15:00 +27°C° 0 mm 3 mps 738 mmHg 51%
    16:00 +27°C° 0 mm 3 mps 738 mmHg 55%
    17:00 +26°C° 0 mm 3 mps 738 mmHg 59%
    18:00 +26°C° 0 mm 2 mps 738 mmHg 63%
    19:00 +24°C° 0 mm 3 mps 738 mmHg 70%
    20:00 +21°C° 0 mm 3 mps 738 mmHg 77%
    21:00 +19°C° 0 mm 3 mps 739 mmHg 85%
    22:00 +18°C° 0 mm 3 mps 739 mmHg 86%
    23:00 +18°C° 0 mm 2 mps 739 mmHg 86%

    28 May, Tuesday

    Time Temperature Precipitation Wind Pressure Humidity
    00:00 +17°C° 0 mm 2 mps 739 mmHg 87%
    01:00 +18°C° 0 mm 1 mps 739 mmHg 87%
    02:00 +16°C° 0 mm 1 mps 739 mmHg 86%
    03:00 +15°C° 0 mm 0 mps 739 mmHg 86%
    04:00 +18°C° 0 mm 1 mps 739 mmHg 85%
    05:00 +18°C° 0 mm 1 mps 739 mmHg 84%
    06:00 +18°C° 0 mm 1 mps 739 mmHg 83%
    07:00 +19°C° 0 mm 2 mps 739 mmHg 77%
    08:00 +21°C° 0 mm 2 mps 740 mmHg 71%
    09:00 +22°C° 0 mm 3 mps 740 mmHg 66%
    10:00 +24°C° 0 mm 3 mps 740 mmHg 62%
    11:00 +25°C° 0 mm 4 mps 740 mmHg 58%
    12:00 +26°C° 0 mm 4 mps 740 mmHg 55%
    13:00 +27°C° 0 mm 4 mps 739 mmHg 54%
    14:00 +27°C° 0 mm 4 mps 739 mmHg 53%
    15:00 +28°C° 0 mm 4 mps 739 mmHg 52%
    16:00 +28°C° 0 mm 3 mps 739 mmHg 56%
    17:00 +28°C° 0 mm 3 mps 738 mmHg 59%
    18:00 +27°C° 0 mm 3 mps 738 mmHg 63%
    19:00 +25°C° 0 mm 3 mps 738 mmHg 67%
    20:00 +24°C° 0 mm 3 mps 738 mmHg 71%
    21:00 +21°C° 0 mm 3 mps 738 mmHg 75%
    22:00 +20°C° 0 mm 2 mps 738 mmHg 75%
    23:00 +20°C° 0 mm 2 mps 737 mmHg 75%
    Show more